Location: The Jewett Observatory
(46.7288°N, 117.1525°W)
Time: 06:11:51
(UTC-07:00)

Cosmos 1633 - Visible Passes

Search period start: 18 April 2015 00:00
Search period end: 28 April 2015 00:00
Orbit: 484 x 508 km, 82.5° (Epoch: 16 April)

Date Brightness Start Highest point End Pass type
(mag) Time Alt. Az. Time Alt. Az. Time Alt. Az.
18 Apr 5.6 00:32:52 10° NNW 00:33:38 15° NNW 00:33:38 15° NNW visible
19 Apr 5.4 00:11:42 10° N 00:12:42 18° N 00:12:42 18° N visible
19 Apr 5.2 23:50:35 10° N 23:51:45 19° N 23:51:45 19° N visible
20 Apr 5.1 23:29:29 10° N 23:30:47 19° NNE 23:30:47 19° NNE visible
21 Apr 5.0 23:08:29 10° NNE 23:09:48 18° NNE 23:09:48 18° NNE visible
22 Apr 5.6 00:43:52 10° NW 00:44:24 13° NW 00:44:24 13° NW visible
22 Apr 5.0 22:47:35 10° NNE 22:48:48 15° NE 22:48:48 15° NE visible
23 Apr 5.3 00:22:19 10° NNW 00:23:25 17° NW 00:23:25 17° NW visible
23 Apr 5.1 22:26:53 10° NE 22:27:48 13° NE 22:27:48 13° NE visible
24 Apr 5.0 00:00:51 10° NNW 00:02:24 22° NNW 00:02:24 22° NNW visible
24 Apr 4.6 23:39:28 10° NNW 23:41:23 29° NNW 23:41:23 29° NNW visible
25 Apr 4.1 23:18:06 10° N 23:20:21 35° N 23:20:21 35° N visible
26 Apr 3.8 22:56:48 10° N 22:59:18 37° NNE 22:59:18 37° NNE visible
27 Apr 3.8 22:35:33 10° N 22:38:14 33° NE 22:38:14 33° NE visible
